Location: Bukovany
(49.8234°N, 14.6297°E)
Time: 06:31:31
(UTC+00:00)

Resurs 1-3 - Pass Details

Date: 17 November 2025
Orbit: 613 x 615 km, 97.7° (Epoch: 17 December)

Event Time Altitude Azimuth Distance (km) Brightness Sun altitude
Rises 16:41:14 0° 142° (SE) 2,876 6.7 -13.7°
Reaches altitude 10° 16:43:32 10° 134° (SE) 1,975 5.8 -14.0°
Maximum altitude 16:47:27 36° 68° (ENE) 980 4.1 -14.7°
Drops below altitude 10° 16:51:25 10° 1° (N) 1,988 6.0 -15.3°
Sets 16:53:43 0° 354° (N) 2,898 7.0 -15.7°
